sat.trackr.live / text

‹ back to catalog

2023-085Y

NORAD 57026 · 2023-085Y

PAYLOAD ACTIVE UNKNOWN

§ Identity

Operator
Country
PRC
Launch date
2023-06-15
Launch site
TAISC
Launch vehicle
Mass (kg)
RCS (m²)

External: N2YO · Heavens-Above · Gunter

§ Orbital elements

Epoch: 2026-05-25T05:00:05.855904Z

Period
93.82 min
Inclination
97.4935°
Eccentricity
0.0006672
Mean motion
15.34878081 rev/d
Perigee alt
456.7 km
Apogee alt
465.8 km
Semi-major
6,839.4 km
B*
4.6585e-4
RAAN
258.1877°
Arg perigee
138.7202°
Mean anomaly
221.4547°
Rev number
16,329

§ Raw data

2023-085Y1 57026U 23085Y   26145.20840111  .00015699  00000+0  46585-3 0  99932 57026  97.4935 258.1877 0006672 138.7202 221.4547 15.34878081163292

JSON: /api/v1/satellites/57026 · /tle

For live sub-satellite position, see the globe view (requires WebGL).

§ Visibility from observer

Set your observer location to see the next 7 days of passes ≥ 10°. The values pass through the URL so the page stays shareable.

No JS? Fill the form by hand. The geolocation button needs JavaScript.